Granite Falls, MN

9:43 AM CST on December 08, 2019 (GMT -0600)
Granite Falls

Weather History for KGDB - October, 2019

Change the Weather History Date:

Monday, October 28, 2019

  Actual Average (WUND) Record (WUND)
Temperature  
Mean Temperature 28 °F -  
Max Temperature 36 °F - - (-1)
Min Temperature 21 °F - - (-1)
Degree Days  
Heating Degree Days 36    
Moisture  
Dew Point 20 °F    
Average Humidity 66    
Maximum Humidity 89    
Minimum Humidity 48    
Precipitation  
Precipitation 0.00 in - - ()
Sea Level Pressure  
Sea Level Pressure 30.12 in    
Wind  
Wind Speed 9 mph (WSW)    
Max Wind Speed 14 mph    
Max Gust Speed 21 mph    
Visibility 8 miles    
Events      
Averages and records for this station are not official NWS values.
T = Trace of Precipitation, MM = Missing Value Source: NWS Daily Summary

Daily Weather History Graph

Daily Weather History Graph

Search for Another Location

Airport or City:

Astronomy

Oct. 28, 2019 Rise Set
Actual Time 7:54 AM CDT 6:16 PM CDT
Civil Twilight 7:24 AM CDT 6:47 PM CDT
Nautical Twilight 6:50 AM CDT 7:21 PM CDT
Astronomical Twilight 6:16 AM CDT 7:55 PM CDT
Moon 8:16 AM CDT (10/28) 7:02 PM CDT (10/28)
Length of Visible Light 11h 22m
Length of Day
10h 22m
New Moon, 0% of the Moon is Illuminated
Oct 28
New Moon
Nov 4
First Quarter
Nov 12
Full
Nov 19
Last Quarter
Nov 26
New

Hourly Weather History & Observations

Time (CDT) Temp. Windchill Dew Point Humidity Pressure Visibility Wind Dir Wind Speed Gust Speed Precip Events Conditions
12:15 AM 32.0 °F 24.8 °F 24.6 °F 74% 30.15 in 10.0 mi West 8.1 mph - N/A   Overcast
12:35 AM 32.4 °F 22.5 °F 22.3 °F 66% 30.15 in 10.0 mi WNW 13.8 mph 18.4 mph N/A   Overcast
12:39 AM 32.4 °F 23.0 °F 21.7 °F 65% 30.15 in 10.0 mi WNW 12.7 mph 18.4 mph N/A   Overcast
12:57 AM 32.0 °F 23.6 °F 19.9 °F 61% 30.15 in 10.0 mi WNW 10.4 mph - N/A   Overcast
1:16 AM 31.6 °F 22.6 °F 19.4 °F 61% 30.15 in 10.0 mi West 11.5 mph 19.6 mph N/A   Overcast
1:35 AM 32.0 °F 22.1 °F 19.2 °F 59% 30.14 in 10.0 mi West 13.8 mph - N/A   Overcast
1:55 AM 32.0 °F 24.2 °F 19.2 °F 59% 30.14 in 10.0 mi WNW 9.2 mph - N/A   Overcast
1:56 AM 32.0 °F 24.2 °F 19.2 °F 59% 30.14 in 10.0 mi WNW 9.2 mph - N/A   Overcast
2:18 AM 31.8 °F 23.9 °F 19.8 °F 61% 30.14 in 10.0 mi WNW 9.2 mph - N/A   Overcast
2:36 AM 31.8 °F 23.9 °F 19.6 °F 61% 30.14 in 10.0 mi WNW 9.2 mph - N/A   Overcast
2:55 AM 31.6 °F 24.4 °F 19.9 °F 62% 30.15 in 10.0 mi West 8.1 mph - N/A   Overcast
3:15 AM 30.9 °F 24.3 °F 20.8 °F 66% 30.15 in 10.0 mi West 6.9 mph - N/A   Overcast
3:16 AM 30.9 °F 24.3 °F 20.8 °F 66% 30.15 in 10.0 mi West 6.9 mph - N/A   Overcast
3:35 AM 30.9 °F 22.8 °F 20.5 °F 65% 30.13 in 10.0 mi WNW 9.2 mph - N/A   Overcast
3:39 AM 30.7 °F 22.0 °F 20.1 °F 65% 30.13 in 10.0 mi WNW 10.4 mph - N/A   Overcast
3:58 AM 29.1 °F 20.0 °F 19.2 °F 67% 30.13 in 10.0 mi West 10.4 mph - N/A   Scattered Clouds
4:15 AM 28.2 °F 19.5 °F 18.9 °F 68% 30.14 in 7.0 mi West 9.2 mph - N/A   Clear
4:35 AM 27.1 °F 20.7 °F 19.4 °F 73% 30.13 in 10.0 mi WSW 5.8 mph - N/A   Clear
4:36 AM 27.0 °F 20.5 °F 19.4 °F 73% 30.13 in 10.0 mi WSW 5.8 mph - N/A   Clear
4:55 AM 25.7 °F 17.1 °F 20.3 °F 80% 30.13 in 7.0 mi WSW 8.1 mph - N/A   Clear
4:56 AM 25.7 °F 17.1 °F 20.3 °F 80% 30.13 in 7.0 mi WSW 8.1 mph - N/A   Clear
5:18 AM 24.8 °F 16.1 °F 20.7 °F 84% 30.11 in 10.0 mi WSW 8.1 mph - N/A   Clear
5:37 AM 24.8 °F 15.3 °F 20.8 °F 85% 30.13 in 10.0 mi WSW 9.2 mph - N/A   Clear
5:56 AM 24.8 °F 16.9 °F 20.8 °F 85% 30.13 in 7.0 mi SW 6.9 mph - N/A   Clear
6:15 AM 24.8 °F 16.9 °F 20.7 °F 84% 30.13 in 10.0 mi WSW 6.9 mph - N/A   Clear
6:16 AM 24.6 °F 16.7 °F 20.5 °F 84% 30.13 in 10.0 mi WSW 6.9 mph - N/A   Clear
6:57 AM 21.9 °F - 19.0 °F 89% 30.13 in 10.0 mi Calm Calm - N/A   Clear
7:15 AM 22.1 °F 13.7 °F 19.0 °F 88% 30.13 in 7.0 mi WSW 6.9 mph - N/A   Clear
7:35 AM 22.1 °F 13.7 °F 19.0 °F 88% 30.13 in 7.0 mi WSW 6.9 mph - N/A   Clear
7:36 AM 22.3 °F 13.9 °F 19.0 °F 87% 30.13 in 7.0 mi WSW 6.9 mph - N/A   Clear
7:55 AM 22.8 °F 13.6 °F 19.2 °F 86% 30.13 in 10.0 mi WSW 8.1 mph - N/A   Clear
8:19 AM 23.0 °F 14.7 °F 19.2 °F 85% 30.12 in 10.0 mi WSW 6.9 mph - N/A   Clear
8:36 AM 23.7 °F 15.6 °F 19.8 °F 85% 30.13 in 7.0 mi WSW 6.9 mph - N/A   Clear
8:56 AM 25.9 °F 16.6 °F 20.8 °F 81% 30.15 in 5.0 mi WSW 9.2 mph - N/A   Haze
9:15 AM 27.3 °F 17.1 °F 20.7 °F 76% 30.15 in 7.0 mi WSW 11.5 mph - N/A   Clear
9:16 AM 27.5 °F 18.0 °F 20.5 °F 75% 30.15 in 5.0 mi WSW 10.4 mph - N/A   Haze
9:35 AM 28.8 °F 19.5 °F 20.1 °F 70% 30.15 in 7.0 mi WSW 10.4 mph - N/A   Clear
9:39 AM 28.9 °F 19.8 °F 20.3 °F 70% 30.14 in 7.0 mi WSW 10.4 mph - N/A   Clear
9:57 AM 30.0 °F 20.5 °F 19.0 °F 64% 30.14 in 10.0 mi WSW 11.5 mph - N/A   Clear
10:16 AM 30.9 °F 22.2 °F 18.1 °F 59% 30.15 in 10.0 mi WSW 10.4 mph - N/A   Clear
10:35 AM 31.6 °F 23.1 °F 17.6 °F 56% 30.15 in 10.0 mi WSW 10.4 mph - N/A   Clear
10:55 AM 32.0 °F 23.0 °F 16.7 °F 53% 30.14 in 10.0 mi WSW 11.5 mph - N/A   Clear
10:56 AM 32.0 °F 23.6 °F 16.7 °F 53% 30.13 in 10.0 mi WSW 10.4 mph - N/A   Clear
11:18 AM 32.4 °F 24.0 °F 17.1 °F 53% 30.13 in 7.0 mi SW 10.4 mph - N/A   Clear
11:36 AM 32.9 °F 23.2 °F 17.4 °F 53% 30.14 in 10.0 mi WSW 13.8 mph 20.7 mph N/A   Clear
11:55 AM 34.0 °F 26.0 °F 18.3 °F 53% 30.13 in 10.0 mi WSW 10.4 mph 17.3 mph N/A   Clear
12:15 PM 33.4 °F 25.4 °F 19.2 °F 56% 30.13 in 7.0 mi WSW 10.4 mph - N/A   Clear
12:16 PM 33.4 °F 25.9 °F 18.9 °F 55% 30.13 in 7.0 mi WSW 9.2 mph - N/A   Clear
12:35 PM 33.1 °F 25.5 °F 18.7 °F 56% 30.12 in 7.0 mi WSW 9.2 mph - N/A   Scattered Clouds
12:40 PM 33.8 °F 27.0 °F 18.3 °F 53% 30.11 in 10.0 mi WSW 8.1 mph 16.1 mph N/A   Scattered Clouds
12:58 PM 34.7 °F 25.9 °F 17.2 °F 49% 30.11 in 7.0 mi WSW 12.7 mph 17.3 mph N/A   Clear
1:15 PM 35.1 °F 26.4 °F 17.4 °F 49% 30.11 in 10.0 mi WSW 12.7 mph 18.4 mph N/A   Clear
1:35 PM 35.8 °F 27.8 °F 17.6 °F 48% 30.10 in 7.0 mi WSW 11.5 mph - N/A   Clear
1:36 PM 35.8 °F 27.3 °F 17.6 °F 48% 30.10 in 7.0 mi WSW 12.7 mph - N/A   Clear
1:55 PM 35.1 °F 26.4 °F 17.2 °F 48% 30.10 in 7.0 mi WSW 12.7 mph 20.7 mph N/A   Clear
2:18 PM 36.5 °F 28.2 °F 18.3 °F 48% 30.09 in 7.0 mi WSW 12.7 mph 20.7 mph N/A   Clear
2:37 PM 36.0 °F 28.0 °F 19.2 °F 51% 30.08 in 7.0 mi West 11.5 mph - N/A   Clear
2:56 PM 35.4 °F 27.8 °F 18.7 °F 51% 30.08 in 7.0 mi West 10.4 mph 16.1 mph N/A   Clear
3:15 PM 35.2 °F 26.2 °F 18.5 °F 51% 30.08 in 10.0 mi WSW 13.8 mph - N/A   Clear
3:16 PM 35.2 °F 26.2 °F 18.5 °F 51% 30.07 in 10.0 mi WSW 13.8 mph - N/A   Clear
3:35 PM 35.6 °F 27.5 °F 19.2 °F 51% 30.07 in 7.0 mi West 11.5 mph - N/A   Clear
3:57 PM 34.9 °F 27.7 °F 19.0 °F 52% 30.07 in 10.0 mi West 9.2 mph - N/A   Clear
4:15 PM 34.9 °F 26.2 °F 19.2 °F 53% 30.08 in 10.0 mi WSW 12.7 mph - N/A   Clear
4:35 PM 35.1 °F 27.9 °F 19.6 °F 53% 30.08 in 10.0 mi WSW 9.2 mph - N/A   Clear
4:36 PM 35.1 °F 27.9 °F 19.6 °F 53% 30.08 in 10.0 mi WSW 9.2 mph - N/A   Clear
4:55 PM 34.9 °F 27.1 °F 19.6 °F 54% 30.07 in 7.0 mi WSW 10.4 mph - N/A   Clear
5:16 PM 34.7 °F 30.6 °F 19.8 °F 54% 30.07 in 7.0 mi SW 4.6 mph - N/A   Clear
5:36 PM 34.5 °F 28.6 °F 20.3 °F 56% 30.07 in 10.0 mi SW 6.9 mph - N/A   Clear
5:55 PM 33.1 °F 27.7 °F 21.0 °F 61% 30.07 in 7.0 mi SW 5.8 mph - N/A   Clear
5:56 PM 33.1 °F 27.7 °F 21.0 °F 61% 30.07 in 7.0 mi SW 5.8 mph - N/A   Clear
6:15 PM 32.4 °F 26.9 °F 20.5 °F 62% 30.08 in 10.0 mi SW 5.8 mph - N/A   Clear
6:19 PM 32.2 °F 27.7 °F 20.8 °F 63% 30.08 in 7.0 mi SSW 4.6 mph - N/A   Clear
6:37 PM 32.0 °F 27.5 °F 21.2 °F 64% 30.09 in 10.0 mi SSW 4.6 mph - N/A   Clear
6:56 PM 32.0 °F 26.4 °F 20.8 °F 63% 30.09 in 5.0 mi SSW 5.8 mph - N/A   Haze
7:15 PM 31.8 °F 27.3 °F 21.6 °F 66% 30.09 in 10.0 mi SSW 4.6 mph - N/A   Clear
7:16 PM 31.8 °F 27.3 °F 21.7 °F 66% 30.09 in 10.0 mi SSW 4.6 mph - N/A   Clear
7:35 PM 31.1 °F 25.4 °F 21.9 °F 69% 30.09 in 5.0 mi SSW 5.8 mph - N/A   Haze
7:36 PM 31.3 °F 25.6 °F 21.9 °F 68% 30.09 in 5.0 mi SSW 5.8 mph - N/A   Haze
7:58 PM 31.1 °F 25.4 °F 22.1 °F 69% 30.09 in 7.0 mi SSW 5.8 mph - N/A   Clear
8:16 PM 31.1 °F 25.4 °F 22.1 °F 69% 30.09 in 10.0 mi South 5.8 mph - N/A   Clear
8:35 PM 30.7 °F 24.9 °F 22.6 °F 72% 30.09 in 10.0 mi South 5.8 mph - N/A   Clear
8:36 PM 30.7 °F 24.9 °F 22.6 °F 72% 30.09 in 10.0 mi South 5.8 mph - N/A   Clear
8:55 PM 30.7 °F 24.1 °F 22.5 °F 71% 30.10 in 5.0 mi South 6.9 mph - N/A   Haze
8:56 PM 30.7 °F 24.1 °F 22.5 °F 71% 30.10 in 5.0 mi South 6.9 mph - N/A   Haze
9:15 PM 30.6 °F 24.7 °F 22.8 °F 73% 30.10 in 5.0 mi South 5.8 mph - N/A   Haze
9:19 PM 30.4 °F 24.5 °F 22.8 °F 73% 30.10 in 5.0 mi South 5.8 mph - N/A   Haze
9:55 PM 31.1 °F 25.4 °F 22.1 °F 69% 30.11 in 10.0 mi SSW 5.8 mph - N/A   Clear
10:15 PM 29.8 °F 23.0 °F 23.0 °F 76% 30.11 in 7.0 mi SW 6.9 mph - N/A   Clear
10:16 PM 29.8 °F 23.0 °F 23.2 °F 76% 30.11 in 7.0 mi SW 6.9 mph - N/A   Clear
10:58 PM 29.3 °F 22.3 °F 23.2 °F 78% 30.11 in 10.0 mi WSW 6.9 mph - N/A   Clear
11:17 PM 28.4 °F 23.3 °F 22.8 °F 80% 30.13 in 10.0 mi SW 4.6 mph - N/A   Clear
11:36 PM 27.5 °F 22.2 °F 22.8 °F 83% 30.13 in 10.0 mi SSW 4.6 mph - N/A   Clear
11:55 PM 27.1 °F 21.8 °F 22.3 °F 82% 30.13 in 7.0 mi South 4.6 mph - N/A   Clear
11:56 PM 27.0 °F 21.6 °F 22.3 °F 83% 30.13 in 10.0 mi South 4.6 mph - N/A   Clear